TimeEDT,TemperatureF,Dew PointF,Humidity,Sea Level PressureIn,VisibilityMPH,Wind Direction,Wind SpeedMPH,Gust SpeedMPH,PrecipitationIn,Events,Conditions,WindDirDegrees,DateUTC
12:53 AM,45.0,35.1,68,29.92,10.0,West,5.8,-,0.00,,Mostly Cloudy,280,2013-05-26 04:53:00
1:53 AM,45.0,35.1,68,29.91,10.0,West,8.1,-,N/A,,Overcast,280,2013-05-26 05:53:00
2:53 AM,46.0,36.0,68,29.90,10.0,WNW,9.2,-,N/A,,Overcast,290,2013-05-26 06:53:00
3:53 AM,46.0,36.0,68,29.90,10.0,West,5.8,-,N/A,,Overcast,260,2013-05-26 07:53:00
4:53 AM,46.0,36.0,68,29.91,10.0,West,4.6,-,0.00,,Mostly Cloudy,260,2013-05-26 08:53:00
5:53 AM,46.0,37.0,71,29.93,10.0,West,8.1,-,N/A,,Overcast,260,2013-05-26 09:53:00
6:53 AM,46.9,36.0,66,29.95,10.0,West,5.8,-,N/A,,Overcast,270,2013-05-26 10:53:00
7:53 AM,48.0,37.9,68,29.95,10.0,WSW,10.4,16.1,N/A,,Overcast,250,2013-05-26 11:53:00
8:53 AM,51.1,37.9,61,29.96,10.0,WNW,9.2,18.4,N/A,,Overcast,290,2013-05-26 12:53:00
9:53 AM,52.0,36.0,54,29.96,10.0,WNW,11.5,23.0,N/A,,Overcast,300,2013-05-26 13:53:00
10:53 AM,57.0,37.9,49,29.97,10.0,NW,12.7,28.8,N/A,,Partly Cloudy,320,2013-05-26 14:53:00
11:53 AM,57.0,35.1,44,29.98,10.0,NW,15.0,32.2,N/A,,Scattered Clouds,320,2013-05-26 15:53:00
12:53 PM,57.9,36.0,44,29.99,10.0,WNW,17.3,32.2,N/A,,Clear,300,2013-05-26 16:53:00
1:53 PM,57.9,36.0,44,30.00,10.0,WNW,13.8,26.5,N/A,,Mostly Cloudy,300,2013-05-26 17:53:00
2:53 PM,60.1,36.0,41,30.02,10.0,NW,17.3,29.9,N/A,,Scattered Clouds,310,2013-05-26 18:53:00
3:53 PM,60.1,36.0,41,30.02,10.0,NW,13.8,29.9,N/A,,Partly Cloudy,310,2013-05-26 19:53:00
4:53 PM,59.0,34.0,39,30.05,10.0,NNW,20.7,33.4,N/A,,Mostly Cloudy,330,2013-05-26 20:53:00
5:53 PM,59.0,34.0,39,30.07,10.0,NNW,16.1,28.8,N/A,,Clear,330,2013-05-26 21:53:00
6:53 PM,59.0,35.1,41,30.09,10.0,NW,5.8,19.6,N/A,,Clear,320,2013-05-26 22:53:00
7:53 PM,55.9,36.0,47,30.11,10.0,NNW,4.6,-,N/A,,Scattered Clouds,330,2013-05-26 23:53:00
8:53 PM,48.9,39.0,69,30.13,10.0,Calm,Calm,-,N/A,,Clear,0,2013-05-27 00:53:00
9:53 PM,46.9,37.0,68,30.16,10.0,Calm,Calm,-,N/A,,Clear,0,2013-05-27 01:53:00
10:53 PM,43.0,37.0,80,30.18,10.0,Calm,Calm,-,N/A,,Clear,0,2013-05-27 02:53:00
11:53 PM,42.1,36.0,79,30.19,10.0,Calm,Calm,-,N/A,,Clear,0,2013-05-27 03:53:00